Weather reports worldwide

Advertisment
Braemar, United Kingdom (99089): temperature & dewpoint: 11.08.2017 08:00:00 - 17.08.2017 08:00:00 (BST)Braemar, United Kingdom (99089): temperature -20cm & temperature -100cm: 11.08.2017 08:00:00 - 17.08.2017 08:00:00 (BST)Braemar, United Kingdom (99089): wind speed: 11.08.2017 08:00:00 - 17.08.2017 08:00:00 (BST)Braemar, United Kingdom (99089): wind direction: 11.08.2017 08:00:00 - 17.08.2017 08:00:00 (BST)Braemar, United Kingdom (99089): visibility: 11.08.2017 08:00:00 - 17.08.2017 08:00:00 (BST)Braemar, United Kingdom (99089): precipitation: 11.08.2017 08:00:00 - 17.08.2017 08:00:00 (BST)
Date & Time tt [°C] td [°C] tt -20cm [°C] tt -100cm [°C] ff [km/h] ff [kn] dd vv [km] rr [mm]
17.08.2017 08:00:00 12,1 9,3 - - - - - - 0,0
17.08.2017 07:00:00 10,8 8,4 - - - - - - 0,0
17.08.2017 06:00:00 9,2 7,5 - - - - - - 0,0
17.08.2017 05:00:00 11,4 8,9 - - - - - - 0,0
17.08.2017 04:00:00 12,4 10,3 - - - - - - 0,0
17.08.2017 03:00:00 13,8 11,4 - - - - - - 0,0
17.08.2017 02:00:00 14,2 11,5 - - - - - - 0,0
17.08.2017 01:00:00 14,0 11,5 - - - - - - 0,0
17.08.2017 00:00:00 13,9 12,8 - - - - - - 0,4
16.08.2017 23:00:00 13,6 12,5 - - - - - - 0,2
16.08.2017 22:00:00 13,6 12,5 - - - - - - 0,6
16.08.2017 21:00:00 13,2 12,1 - - - - - - 0,8
16.08.2017 20:00:00 13,4 11,9 - - - - - - 1,0
16.08.2017 19:00:00 13,0 11,6 - - - - - - 0,2
16.08.2017 18:00:00 13,3 11,4 - - - - - - 0,0
16.08.2017 17:00:00 13,7 11,4 - - - - - - 0,2
16.08.2017 16:00:00 12,9 10,3 - - - - - - 0,0
16.08.2017 15:00:00 13,1 10,0 - - - - - - 0,0
16.08.2017 14:00:00 13,0 9,3 - - - - - - 0,0
16.08.2017 13:00:00 14,0 9,0 - - - - - - 0,0
16.08.2017 12:00:00 15,0 9,7 - - - - - - 0,0
16.08.2017 11:00:00 13,1 9,6 - - - - - - 0,0
16.08.2017 10:00:00 13,0 9,0 13,5 12,5 144 78 N 5 0,0
16.08.2017 09:00:00 11,7 8,7 - - - - - - 0,0
16.08.2017 08:00:00 9,7 8,2 - - - - - - 0,0
16.08.2017 07:00:00 9,1 7,4 - - - - - - 0,0
16.08.2017 06:00:00 8,4 6,9 - - - - - - 0,0
16.08.2017 05:00:00 8,6 6,6 - - - - - - 0,0
16.08.2017 04:00:00 9,9 7,2 - - - - - - 0,0
16.08.2017 03:00:00 10,0 7,2 - - - - - - 0,0
16.08.2017 02:00:00 10,1 7,2 - - - - - - 0,0
16.08.2017 01:00:00 10,6 8,0 - - - - - - 0,0
16.08.2017 00:00:00 10,4 7,5 - - - - - - 0,0
15.08.2017 23:00:00 9,0 5,9 - - - - - - 0,0
15.08.2017 22:00:00 10,6 7,4 - - - - - - 0,0
15.08.2017 21:00:00 10,6 7,4 - - - - - - 0,0
15.08.2017 20:00:00 12,8 8,3 - - - - - - 0,0
15.08.2017 19:00:00 13,4 7,8 - - - - - - 0,0
15.08.2017 18:00:00 13,7 8,8 - - - - - - 0,0
15.08.2017 17:00:00 13,6 8,7 - - - - - - 0,0
15.08.2017 16:00:00 14,8 10,3 - - - - - - 0,0
15.08.2017 15:00:00 15,9 9,3 - - - - - - 0,0
15.08.2017 14:00:00 16,4 10,0 - - - - - - 0,0
15.08.2017 13:00:00 14,0 9,1 - - - - - - 0,0
15.08.2017 12:00:00 14,3 8,9 - - - - - - 0,0
15.08.2017 11:00:00 15,1 8,8 - - - - - - 0,0
15.08.2017 10:00:00 14,1 8,5 13,2 12,5 - - - 10 0,2
15.08.2017 09:00:00 12,0 9,1 - - - - - - 0,0
15.08.2017 08:00:00 11,0 9,3 - - - - - - 0,0
15.08.2017 07:00:00 11,1 9,7 - - - - - - 0,0
15.08.2017 06:00:00 11,3 11,2 - - - - - - 2,6
15.08.2017 05:00:00 11,5 11,4 - - - - - - 0,8
15.08.2017 04:00:00 11,5 11,4 - - - - - - 1,4
15.08.2017 03:00:00 11,7 11,4 - - - - - - 0,8
15.08.2017 02:00:00 12,1 11,8 - - - - - - 3,2
15.08.2017 01:00:00 12,4 11,9 - - - - - - 0,6
15.08.2017 00:00:00 12,6 12,0 - - - - - - 1,0
14.08.2017 23:00:00 13,2 11,9 - - - - - - 1,0
14.08.2017 22:00:00 14,1 11,9 - - - - - 10 0,0
14.08.2017 21:00:00 14,3 11,4 - - - - - - 0,0
14.08.2017 20:00:00 14,6 12,0 - - - - - - 0,2
14.08.2017 19:00:00 14,0 13,0 - - - - - - 1,6
14.08.2017 18:00:00 14,3 12,5 - - - - - - 0,6
14.08.2017 17:00:00 13,6 12,4 - - - - - - 0,2
14.08.2017 16:00:00 13,3 11,8 - - - - - - 0,2
14.08.2017 15:00:00 13,7 11,5 - - - - - - 0,0
14.08.2017 14:00:00 13,5 11,4 - - - - - - 0,2
14.08.2017 13:00:00 12,7 10,8 - - - - - - 0,0
14.08.2017 12:00:00 12,5 10,5 - - - - - - 0,4
14.08.2017 11:00:00 11,8 10,8 - - - - - - 0,4
14.08.2017 10:00:00 9,0 9,0 13,4 12,7 137 74 N 4,9 1,0
14.08.2017 09:00:00 8,0 8,0 - - - - - - 0,4
14.08.2017 08:00:00 7,3 7,3 - - - - - - 0,0
14.08.2017 07:00:00 6,6 6,6 - - - - - - 0,2
14.08.2017 06:00:00 5,9 5,9 - - - - - - 0,0
14.08.2017 05:00:00 5,7 5,6 - - - - - - 0,0
14.08.2017 04:00:00 6,1 6,0 - - - - - - 0,0
14.08.2017 03:00:00 6,2 6,1 - - - - - - 0,0
14.08.2017 02:00:00 6,2 6,2 - - - - - - 0,0
14.08.2017 01:00:00 6,0 5,9 - - - - - - 0,0
14.08.2017 00:00:00 6,1 5,9 - - - - - - 0,0
13.08.2017 23:00:00 6,7 6,4 - - - - - - 0,0
13.08.2017 22:00:00 8,1 7,9 - - - - - - 0,0
13.08.2017 21:00:00 8,4 7,8 - - - - - - 0,0
13.08.2017 20:00:00 10,6 9,2 - - - - - - 0,0
13.08.2017 19:00:00 10,9 8,8 - - - - - - 0,6
13.08.2017 18:00:00 11,2 9,4 - - - - - - 0,8
13.08.2017 17:00:00 10,9 9,2 - - - - - - 2,4
13.08.2017 16:00:00 11,7 8,8 - - - - - - 0,4
13.08.2017 15:00:00 12,6 8,9 - - - - - - 0,2
13.08.2017 14:00:00 13,3 6,7 - - - - - - 0,0
13.08.2017 13:00:00 13,7 6,3 - - - - - - 0,0
13.08.2017 12:00:00 12,3 7,2 - - - - - - 0,0
13.08.2017 11:00:00 13,0 6,7 - - - - - - 0,0
13.08.2017 10:00:00 11,9 6,3 13,7 12,7 - - - - 0,0
13.08.2017 09:00:00 11,0 6,2 - - - - - - 0,0
13.08.2017 08:00:00 8,3 7,3 - - - - - - 0,0
13.08.2017 07:00:00 4,9 4,5 - - - - - - 0,2
13.08.2017 06:00:00 5,2 4,6 - - - - - - 0,0
13.08.2017 05:00:00 5,2 4,3 - - - - - - 0,0
13.08.2017 04:00:00 5,9 5,0 - - - - - - 0,0
13.08.2017 03:00:00 7,3 6,3 - - - - - - 0,0
13.08.2017 02:00:00 8,5 7,3 - - - - - - 0,4
13.08.2017 01:00:00 8,7 7,1 - - - - - - 0,0
13.08.2017 00:00:00 8,1 6,7 - - - - - - 0,0
12.08.2017 23:00:00 7,7 6,3 - - - - - - 0,0
12.08.2017 22:00:00 7,9 6,9 - - - - - - 0,0
12.08.2017 21:00:00 9,7 7,8 - - - - - - 0,2
12.08.2017 20:00:00 11,9 6,9 - - - - - - 0,0
12.08.2017 19:00:00 13,2 6,3 - - - - - - 0,0
12.08.2017 18:00:00 14,2 6,7 - - - - - - 0,0
12.08.2017 17:00:00 14,1 5,3 - - - - - - 0,0
12.08.2017 16:00:00 14,2 6,5 - - - - - - 0,0
12.08.2017 15:00:00 13,9 5,7 - - - - - - 0,0
12.08.2017 14:00:00 13,2 5,5 - - - - - - 0,0
12.08.2017 13:00:00 13,9 4,9 - - - - - - 0,0
12.08.2017 12:00:00 13,4 6,3 - - - - - - 0,0
12.08.2017 11:00:00 12,0 5,7 - - - - - - 0,0
12.08.2017 10:00:00 12,6 6,4 14,0 12,7 5 3 N 0,05 0,0
12.08.2017 09:00:00 11,9 7,5 - - - - - - 0,0
12.08.2017 08:00:00 10,1 7,8 - - - - - - 0,0
12.08.2017 07:00:00 9,6 8,6 - - - - - - 0,0
12.08.2017 06:00:00 9,6 8,3 - - - - - - 0,0
12.08.2017 05:00:00 10,2 7,6 - - - - - - 0,0
12.08.2017 04:00:00 11,2 7,8 - - - - - - 0,0
12.08.2017 03:00:00 11,4 8,1 - - - - - - 0,0
12.08.2017 02:00:00 11,8 10,0 - - - - - - 0,0
12.08.2017 01:00:00 12,0 9,3 - - - - - - 0,0
12.08.2017 00:00:00 12,4 9,2 - - - - - - 0,0
11.08.2017 23:00:00 11,8 9,6 - - - - - - 0,0
11.08.2017 22:00:00 12,3 10,0 - - - - - - 0,0
11.08.2017 21:00:00 13,2 9,6 - - - - - - 0,0
11.08.2017 20:00:00 14,1 9,8 - - - - - - 0,0
11.08.2017 19:00:00 15,0 11,2 - - - - - - 0,0
11.08.2017 18:00:00 16,1 12,4 - - - - - - 0,2
11.08.2017 17:00:00 14,5 12,5 - - - - - - 0,8
11.08.2017 16:00:00 16,7 11,0 - - - - - - 0,0
11.08.2017 15:00:00 17,3 12,0 - - - - - - 0,0
11.08.2017 14:00:00 16,8 12,4 - - - - - - 0,0
11.08.2017 13:00:00 17,9 12,2 - - - - - - 0,0
11.08.2017 12:00:00 16,8 11,6 - - - - - - 0,0
11.08.2017 11:00:00 17,1 12,3 - - - - - - 0,0
11.08.2017 10:00:00 15,1 10,8 14,0 12,7 24 13 N 2,0 0,0
11.08.2017 09:00:00 13,5 10,0 - - - - - - 0,0
11.08.2017 08:00:00 13,4 9,7 - - - - - - 0,0

tt = temperature
td = dewpoint
tt -20cm = temperature -20cm
tt -100cm = temperature -100cm
ff = wind speed
dd = wind direction
vv = visibility
rr = precipitation

Next stations